Regional Weather Roundup
Issued by NWS

Home | Current Version | Previous Version | Text Only | Print | Product List | Glossary On
Versions: 1 2 3 4 5 6 7 8 9 10 11 12 13 14 15 16 17 18 19 20 21 22 23 24 25 26 27 28 29 30 31 32 33 34 35 36 37 38 39 40 41 42 43 44 45 46 47 48 49 50
000
ASUS43 KFSD 302310
RWRSD

WEATHER ROUNDUP FOR SOUTH DAKOTA
NATIONAL WEATHER SERVICE SIOUX FALLS SD
600 PM CDT SAT MAY 30 2015

NOTE: "FAIR" INDICATES FEW OR NO CLOUDS BELOW 12,000 FEET WITH NO
SIGNIFICANT WEATHER AND/OR OBSTRUCTIONS TO VISIBILITY.


SDZ001>005-009-010-012>017-310000-
NORTHWEST AND NORTH CENTRAL SOUTH DAKOTA

CITY           SKY/WX    TMP DP  RH WIND       PRES   REMARKS
BUFFALO          N/A     63  40  42 SE26      30.05F
FAITH            N/A     60  39  45 SE20G26   30.18F
MOBRIDGE       SUNNY     61  32  33 SE5       30.21F
$$

SDZ012>016-024>037-041>051-057-063-072>074-310000-
SOUTHWEST AND SOUTH CENTRAL SOUTH DAKOTA

CITY           SKY/WX    TMP DP  RH WIND       PRES   REMARKS
RAPID CTY ARPT SUNNY     65  44  46 SE20G28   30.13F
PIERRE         SUNNY     61  37  41 SE12G20   30.21F
CUSTER         MOSUNNY   57  44  62 VRB3      30.20F
ELLSWORTH AFB  SUNNY     66  46  48 SE23      30.11F
PHILIP         SUNNY     63  37  38 SE14      30.19F
PINE RIDGE     SUNNY     67  39  35 S12G18    30.16F
SPEARFISH      FAIR      64  50  59 E15G22    30.09F
WINNER         FAIR      63  30  28 E7        30.23F
$$

SDZ004>011-016>023-039-040-310000-
NORTHEAST SOUTH DAKOTA

CITY           SKY/WX    TMP DP  RH WIND       PRES   REMARKS
ABERDEEN       SUNNY     57  32  38 NE7       30.28F
WATERTOWN      MOSUNNY   57  36  45 NE9       30.26F
BROOKINGS      SUNNY     57  39  51 NE9       30.26F
SISSETON         N/A     57  37  47 NE9       30.27F
$$

SDZ017-020-022-023-036>040-048>070-310000-
SOUTHEAST SOUTH DAKOTA

CITY           SKY/WX    TMP DP  RH WIND       PRES   REMARKS
SIOUX FALLS    MOSUNNY   62  42  47 NE9       30.23S
HURON          SUNNY     62  37  39 NE6       30.24F
CHAMBERLAIN    SUNNY     60  33  36 E3        30.24F
MITCHELL       SUNNY     64  39  39 E8        30.24F
YANKTON        SUNNY     64  39  39 N12       30.21F
$$

ABBREVIATIONS USED IN REMARKS
   TC - TEMPERATURE IN CELSIUS
  WCI - WIND CHILL INDEX
   HX - HEAT INDEX
  VSB - VISIBILITY



USA.gov is the U.S. government's official web portal to all federal, state and local government web resources and services.